Location: Burland Observatory
(39.4088°N, 105.4217°W)
Time: 16:20:46
(UTC-07:00)

Vanguard 3 - Pass Details

Date: 10 December 2019
Orbit: 508 x 3263 km, 33.3° (Epoch: 18 January)

Event Time Altitude Azimuth Distance (km) Brightness Sun altitude
Rises 05:22:27 0° 183° (S) 3,254 10.4 -20.2°
Reaches altitude 10° 05:26:44 10° 148° (SSE) 2,796 10.5 -19.4°
Maximum altitude 05:28:46 11° 131° (SE) 2,928 10.9 -19.1°
Drops below altitude 10° 05:31:06 10° 114° (ESE) 3,311 11.5 -18.6°
Sets 05:37:52 0° 86° (E) 5,084 12.6 -17.4°
